Vancouver Sea Island Ccg, British Columbia

1:51 AM PST on February 10, 2016 (GMT -0800)
Vancouver International

Weather History for CYVR - February, 2013

Change the Weather History Date:

Thursday, February 21, 2013

  Actual Average Record
Temperature  
Mean Temperature 42 °F -  
Max Temperature 46 °F 44 °F 50 °F (2002)
Min Temperature 37 °F 34 °F 24 °F (2011)
Degree Days  
Heating Degree Days 24    
Moisture  
Dew Point 35 °F    
Average Humidity 75    
Maximum Humidity 87    
Minimum Humidity 59    
Precipitation  
Precipitation 0.08 in - - ()
Sea Level Pressure  
Sea Level Pressure 29.98 in    
Wind  
Wind Speed 8 mph ()    
Max Wind Speed 17 mph    
Max Gust Speed 17 mph    
Visibility 13.4 miles    
Events Rain    
Averages and records for this station are not official NWS values.
T = Trace of Precipitation, MM = Missing Value Source: Averaged Metar Reports

Daily Weather History Graph

Daily Weather History Graph

Search for Another Location

Airport or City:

Trip Planner

Search our weather history database for the weather conditions in past years. The results will help you decide how hot, cold, wet, or windy it might be!

Date:

Astronomy

Feb. 21, 2013 Rise Set
Actual Time 7:09 AM PST 5:43 PM PST
Civil Twilight 6:37 AM PST 6:15 PM PST
Nautical Twilight 6:00 AM PST 6:52 PM PST
Astronomical Twilight 5:23 AM PST 7:29 PM PST
Moon 1:49 PM PST (2/21) 4:32 AM PST (2/21)
Length of Visible Light 11h 38m
Length of Day
10h 33m
Waxing Gibbous, 84% of the Moon is Illuminated
Feb 21
Waxing Gibbous
Feb 25
Full
Mar 4
Last Quarter
Mar 11
New
Mar 19
First Quarter

Hourly Weather History & Observations

Time (PST) Temp. Windchill Dew Point Humidity Pressure Visibility Wind Dir Wind Speed Gust Speed Precip Events Conditions
12:00 AM 39.2 °F 33.0 °F 33.8 °F 81% 30.02 in 10.0 mi ESE 9.2 mph - N/A   Overcast
1:00 AM 39.2 °F 34.2 °F 33.8 °F 81% 30.01 in 10.0 mi ESE 6.9 mph - N/A   Overcast
2:00 AM 37.4 °F 30.8 °F 33.8 °F 87% 30.01 in 12.0 mi East 9.2 mph - N/A   Overcast
3:00 AM 39.2 °F 33.0 °F 33.8 °F 81% 30.00 in 12.0 mi East 9.2 mph - N/A   Overcast
3:48 AM 39.2 °F 33.6 °F - N/A% - 10.0 mi East 8.1 mph - N/A Rain Light Rain
4:00 AM 39 °F - 34 °F 75% 29.99 in 10 mi East 6.9 mph - - Rain Light Rain
4:00 AM 39.2 °F 34.2 °F 33.8 °F 81% 29.99 in 10.0 mi East 6.9 mph - N/A Rain Light Rain
5:00 AM 39.2 °F 33.6 °F 33.8 °F 81% 29.98 in 10.0 mi East 8.1 mph - N/A Rain Light Rain
6:00 AM 39.2 °F 33.0 °F 33.8 °F 81% 29.97 in 10.0 mi East 9.2 mph - N/A Rain Light Rain
7:00 AM 39.2 °F 33.0 °F 35.6 °F 87% 29.96 in 8.0 mi East 9.2 mph - N/A Rain Light Rain
7:46 AM 41.0 °F 38.0 °F - N/A% - 12.0 mi SE 4.6 mph - N/A   Overcast
8:00 AM 41.0 °F 38.0 °F 35.6 °F 81% 29.96 in 12.0 mi ESE 4.6 mph - N/A   Overcast
9:00 AM 42.8 °F 39.3 °F 37.4 °F 81% 29.96 in 15.0 mi East 5.8 mph - N/A   Overcast
10:00 AM 43 °F - 34 °F 62% 29.97 in 15 mi South 13.8 mph - -   Partly Cloudy
10:00 AM 42.8 °F 35.1 °F 33.8 °F 70% 29.97 in 15.0 mi SSE 16.1 mph - N/A   Overcast
10:46 AM 42.8 °F 35.8 °F - N/A% - 15.0 mi SSE 13.8 mph - N/A Rain Light Rain
11:00 AM 42.8 °F 36.6 °F 35.6 °F 76% 29.97 in 15.0 mi SSE 11.5 mph 17.3 mph N/A Rain Light Rain
11:32 AM 42.8 °F 37.0 °F - N/A% - 15.0 mi SSE 10.4 mph - N/A   Overcast
12:00 PM 44.6 °F 37.8 °F 37.4 °F 76% 29.97 in 15.0 mi SSE 15.0 mph - N/A   Overcast
1:00 PM 44.6 °F 37.8 °F 37.4 °F 76% 29.96 in 15.0 mi SSE 15.0 mph - N/A   Mostly Cloudy
2:00 PM 46.4 °F 39.5 °F 35.6 °F 66% 29.95 in 15.0 mi South 17.3 mph - N/A   Mostly Cloudy
3:00 PM 46.4 °F 39.8 °F 35.6 °F 66% 29.95 in 15.0 mi South 16.1 mph - N/A   Overcast
4:00 PM 46 °F - 36 °F 59% 29.95 in 15 mi South 10.4 mph - -   Partly Cloudy
4:00 PM 46.4 °F 41.9 °F 35.6 °F 66% 29.95 in 15.0 mi South 9.2 mph - N/A   Overcast
5:00 PM 44.6 °F 39.2 °F 37.4 °F 76% 29.98 in 15.0 mi SSE 10.4 mph - N/A   Overcast
6:00 PM 44.6 °F 41.4 °F 35.6 °F 71% 29.97 in 15.0 mi SE 5.8 mph - N/A   Overcast
7:00 PM 44.6 °F 43.1 °F 35.6 °F 71% 29.97 in 15.0 mi SE 3.5 mph - N/A   Mostly Cloudy
8:00 PM 42.8 °F 40.1 °F 35.6 °F 76% 29.99 in 15.0 mi South 4.6 mph - N/A   Overcast
9:00 PM 41.0 °F 36.4 °F 35.6 °F 81% 30.00 in 15.0 mi East 6.9 mph - N/A   Overcast
10:00 PM 41 °F - 35 °F 70% 29.99 in 15 mi ESE 5.8 mph - -   Overcast
10:00 PM 41.0 °F 38.0 °F 33.8 °F 76% 29.99 in 15.0 mi East 4.6 mph - N/A   Overcast
11:00 PM 42.8 °F 39.3 °F 35.6 °F 76% 29.99 in 15.0 mi East 5.8 mph - N/A   Overcast
11:52 PM 44.6 °F 38.8 °F - N/A% - 15.0 mi South 11.5 mph - N/A Rain Light Rain